Back to Previous

Regional Weather Roundup

873 
ASUS44 KLZK 200405
RWRLZK

WEATHER ROUNDUP FOR ARKANSAS
NATIONAL WEATHER SERVICE LITTLE ROCK AR
1100 PM CDT TUE AUG 19 2014

NOTE: "FAIR" INDICATES FEW OR NO CLOUDS BELOW 12,000 FEET WITH NO
SIGNIFICANT WEATHER AND/OR OBSTRUCTIONS TO VISIBILITY.

ARZ001-003-010-029-200500-
NORTHWEST ARKANSAS
  
CITY           SKY/WX    TMP DP  RH WIND       PRES   REMARKS
FAYETTEVILLE   CLEAR     78  72  81 VRB3      29.93R                  
FORT SMITH     CLEAR     81  74  79 CALM      29.89R HX  86           
HARRISON       CLEAR     80  71  74 S7        29.92S                  
BENTONVILLE    PTCLDY    81  72  74 S7        29.93S                  
ROGERS         PTCLDY    81  71  71 S10       29.93R HX  85           
SILOAM SPGS    CLEAR     79  68  69 S8        29.93S                  
HIGHFILL       PTCLDY    78  72  81 S6        29.92R                  
$$

ARZ004-005-016-200500-
NORTH CENTRAL ARKANSAS
  
CITY           SKY/WX    TMP DP  RH WIND       PRES   REMARKS
BATESVILLE     CLEAR     79  73  83 CALM      29.88S                  
FLIPPIN        CLEAR     82  68  61 SW6       29.89S HX  85           
MTN HOME       CLEAR     81  71  71 SW5       29.89R HX  85           
$$

ARZ040-041-200500-
WEST CENTRAL ARKANSAS
  
CITY           SKY/WX    TMP DP  RH WIND       PRES   REMARKS
MENA           CLEAR     79  73  83 CALM      29.94F                  
MOUNT IDA      CLEAR     77  72  84 CALM      29.90F                  
$$

ARZ009-017-025-026-028-200500-
NORTHEAST ARKANSAS
  
CITY           SKY/WX    TMP DP  RH WIND       PRES   REMARKS
CORNING        FAIR      81  75  83 SW8       29.85F HX  86           
JONESBORO      CLEAR     83  77  82 SW8       29.86F HX  92           
NEWPORT        CLEAR     81  78  90 SW9       29.88S HX  89           
WALNUT RIDGE   CLEAR     81  75  83 S9        29.85S HX  86           
BLYTHEVILLE    CLEAR     82  78  88 SW9       29.86S HX  91           
$$

ARZ022-023-033-042-044-200500-
CENTRAL ARKANSAS
  
CITY           SKY/WX    TMP DP  RH WIND       PRES   REMARKS
LITTLE ROCK    PTCLDY    82  76  81 SW7       29.90S HX  89           
N LITTLE ROCK  PTCLDY    82  76  82 SW5       29.90S HX  90           
JACKSONVILLE   PTCLDY    83  76  79 SW6       29.90S HX  91           
SEARCY           N/A     82  78  88 CALM        N/A  HX  91           
HOT SPRINGS    CLEAR     81  74  79 CALM      29.92S HX  86           
RUSSELLVILLE   CLEAR     77  73  87 CALM      29.90S                  
CLINTON        FAIR      77  73  88 CALM      29.91S                  
$$

ARZ036-200500-
EAST ARKANSAS
  
CITY           SKY/WX    TMP DP  RH WIND       PRES   REMARKS
WEST MEMPHIS   CLEAR     83  79  88 SW7       29.88S HX  94           
$$

ARZ050-053-066-070-073-200500-
SOUTHWEST ARKANSAS
  
CITY           SKY/WX    TMP DP  RH WIND       PRES   REMARKS
ARKADELPHIA    FAIR      79  78  96 CALM      29.90F                  
CAMDEN         CLEAR     81  72  74 CALM      29.91S                  
TEXARKANA      CLEAR     77  68  73 SW6       29.92R                  
EL DORADO      PTCLDY    78  72  81 SW3       29.92S                  
DE QUEEN       CLEAR     79  73  82 S6        29.90S                  
$$

ARZ056-057-069-200500-
SOUTHEAST ARKANSAS
  
CITY           SKY/WX    TMP DP  RH WIND       PRES   REMARKS
PINE BLUFF     CLEAR     80  75  84 CALM      29.91S HX  85           
STUTTGART      CLEAR     81  75  83 S7        29.91S HX  86           
MONTICELLO     CLEAR     81  72  74 SW5       29.92S HX  85           

$$




USA.gov is the U.S. government's official web portal to all federal, state and local government web resources and services.